Location: Cactus School
(34.5700°N, 118.0931°W)
Time: 02:06:04
(UTC-08:00)

Tiros 1 - Pass Details

Date: 29 November 2019
Orbit: 630 x 664 km, 48.4° (Epoch: 14 December)

Event Time Altitude Azimuth Distance (km) Brightness Sun altitude
Rises 09:31:01 0° 233° (SW) 2,930 10.6 26.0°
Reaches altitude 10° 09:33:21 10° 234° (SW) 2,018 9.8 26.3°
Maximum altitude 09:38:00 83° 322° (NW) 642 7.5 26.8°
Drops below altitude 10° 09:42:38 10° 51° (NE) 2,011 9.7 27.3°
Sets 09:44:57 0° 52° (NE) 2,918 10.4 27.5°
